Princeton, MN

11:18 PM CST on November 19, 2019 (GMT -0600)
Princeton Municipal

Weather History for KPNM - September, 2019

Change the Weather History Date:

Sunday, September 1, 2019

  Actual Average Record
Temperature  
Mean Temperature 63 °F -  
Max Temperature 69 °F 75 °F 87 °F (2008)
Min Temperature 57 °F 53 °F 44 °F (2003)
Degree Days  
Heating Degree Days 2    
Growing Degree Days 13 (Base 50)    
Moisture  
Dew Point 59 °F    
Average Humidity 84    
Maximum Humidity 94    
Minimum Humidity 77    
Precipitation  
Precipitation 0.00 in - - ()
Sea Level Pressure  
Sea Level Pressure 30.09 in    
Wind  
Wind Speed 2 mph (South)    
Max Wind Speed 8 mph    
Max Gust Speed -    
Visibility 10 miles    
Events Rain    
Averages and records for this station are not official NWS values.
T = Trace of Precipitation, MM = Missing Value Source: NWS Daily Summary

Daily Weather History Graph

Daily Weather History Graph

Search for Another Location

Airport or City:

Astronomy

Sep. 01, 2019 Rise Set
Actual Time 6:35 AM CDT 7:52 PM CDT
Civil Twilight 6:04 AM CDT 8:23 PM CDT
Nautical Twilight 5:27 AM CDT 8:59 PM CDT
Astronomical Twilight 4:48 AM CDT 9:39 PM CDT
Moon 9:12 AM CDT (9/1) 9:32 PM CDT (9/1)
Length of Visible Light 14h 18m
Length of Day
13h 17m
Waxing Crescent, 8% of the Moon is Illuminated
Sep 1
Waxing Crescent
Sep 5
First Quarter
Sep 13
Full
Sep 21
Last Quarter
Sep 28
New

Hourly Weather History & Observations

Time (CDT) Temp. Dew Point Humidity Pressure Visibility Wind Dir Wind Speed Gust Speed Precip Events Conditions
12:15 AM 60.8 °F 55.4 °F 82% 30.19 in 10.0 mi Calm Calm - N/A   Overcast
12:16 AM 60.8 °F 55.4 °F 82% 30.19 in 10.0 mi Calm Calm - N/A   Overcast
12:35 AM 60.8 °F 55.4 °F 82% 30.19 in 10.0 mi Calm Calm - N/A   Overcast
12:55 AM 60.8 °F 55.4 °F 82% 30.19 in 10.0 mi Calm Calm - N/A   Scattered Clouds
1:18 AM 57.2 °F 55.4 °F 94% 30.18 in 10.0 mi Calm Calm - N/A   Scattered Clouds
1:36 AM 57.2 °F 55.4 °F 94% 30.17 in 10.0 mi Calm Calm - N/A   Mostly Cloudy
1:55 AM 60.8 °F 55.4 °F 82% 30.17 in 10.0 mi Calm Calm - N/A   Overcast
1:56 AM 60.8 °F 55.4 °F 82% 30.17 in 10.0 mi Calm Calm - N/A   Overcast
2:15 AM 60.8 °F 55.4 °F 82% 30.17 in 10.0 mi Calm Calm - N/A   Overcast
2:39 AM 60.8 °F 55.4 °F 82% 30.17 in 10.0 mi South 3.5 mph - N/A   Overcast
2:57 AM 60.8 °F 55.4 °F 82% 30.16 in 10.0 mi South 3.5 mph - N/A   Overcast
3:15 AM 60.8 °F 55.4 °F 82% 30.16 in 10.0 mi South 3.5 mph - N/A   Mostly Cloudy
3:16 AM 60.8 °F 55.4 °F 82% 30.16 in 10.0 mi South 5.8 mph - N/A   Mostly Cloudy
3:35 AM 59.0 °F 55.4 °F 88% 30.16 in 10.0 mi South 3.5 mph - N/A   Clear
3:36 AM 59.0 °F 55.4 °F 88% 30.16 in 10.0 mi South 3.5 mph - N/A   Clear
3:55 AM 59.0 °F 55.4 °F 88% 30.15 in 10.0 mi Calm Calm - N/A   Mostly Cloudy
4:18 AM 59.0 °F 55.4 °F 88% 30.14 in 10.0 mi SSE 3.5 mph - N/A   Mostly Cloudy
4:36 AM 59.0 °F 55.4 °F 88% 30.14 in 10.0 mi Calm Calm - N/A   Overcast
4:55 AM 59.0 °F 55.4 °F 88% 30.14 in 10.0 mi SSE 4.6 mph - N/A   Overcast
4:56 AM 59.0 °F 55.4 °F 88% 30.13 in 10.0 mi SSE 4.6 mph - N/A   Overcast
5:15 AM 59.0 °F 55.4 °F 88% 30.13 in 10.0 mi SSE 4.6 mph - N/A   Overcast
5:39 AM 59.0 °F 55.4 °F 88% 30.13 in 10.0 mi Calm Calm - N/A   Overcast
5:57 AM 60.8 °F 55.4 °F 82% 30.12 in 10.0 mi SSE 3.5 mph - N/A   Overcast
6:15 AM 60.8 °F 55.4 °F 82% 30.12 in 10.0 mi SSE 4.6 mph - N/A   Overcast
6:55 AM 60.8 °F 55.4 °F 82% 30.12 in 10.0 mi SSE 4.6 mph - N/A   Overcast
7:00 AM 60.8 °F 55.4 °F 82% 30.12 in 10.0 mi SSE 5.8 mph - N/A   Overcast
7:18 AM 60.8 °F 55.4 °F 82% 30.12 in 10.0 mi SSE 4.6 mph - N/A   Overcast
7:36 AM 60.8 °F 55.4 °F 82% 30.12 in 10.0 mi SSE 4.6 mph - N/A   Overcast
7:55 AM 60.8 °F 55.4 °F 82% 30.11 in 10.0 mi SSE 4.6 mph - N/A   Overcast
8:15 AM 60.8 °F 55.4 °F 82% 30.11 in 10.0 mi SSE 4.6 mph - N/A   Overcast
8:39 AM 62.6 °F 55.4 °F 77% 30.10 in 10.0 mi SSE 5.8 mph - N/A   Overcast
8:57 AM 62.6 °F 55.4 °F 77% 30.10 in 10.0 mi SSE 6.9 mph - N/A   Overcast
9:15 AM 62.6 °F 55.4 °F 77% 30.10 in 10.0 mi South 4.6 mph - N/A   Overcast
9:35 AM 62.6 °F 55.4 °F 77% 30.10 in 10.0 mi South 6.9 mph - N/A   Overcast
9:55 AM 62.6 °F 55.4 °F 77% 30.10 in 10.0 mi South 4.6 mph - N/A   Overcast
9:59 AM 62.6 °F 55.4 °F 77% 30.10 in 10.0 mi South 8.1 mph - N/A   Overcast
10:17 AM 60.8 °F 55.4 °F 82% 30.10 in 7.0 mi South 4.6 mph - N/A   Drizzle
10:35 AM 60.8 °F 57.2 °F 88% 30.09 in 10.0 mi South 5.8 mph - N/A   Overcast
10:55 AM 62.6 °F 57.2 °F 82% 30.09 in 10.0 mi South 5.8 mph - N/A   Overcast
10:56 AM 62.6 °F 57.2 °F 82% 30.09 in 10.0 mi South 5.8 mph - N/A   Overcast
11:15 AM 62.6 °F 57.2 °F 82% 30.09 in 10.0 mi South 5.8 mph - N/A   Overcast
11:20 AM 62.6 °F 57.2 °F 82% 30.09 in 10.0 mi South 8.1 mph - N/A   Overcast
11:38 AM 62.6 °F 59.0 °F 88% 30.09 in 10.0 mi South 4.6 mph - N/A Rain Light Rain
11:56 AM 64.4 °F 59.0 °F 83% 30.08 in 10.0 mi SSE 5.8 mph - N/A   Overcast
12:15 PM 64.4 °F 60.8 °F 88% 30.07 in 10.0 mi SSE 5.8 mph - N/A   Overcast
12:35 PM 66.2 °F 60.8 °F 83% 30.07 in 10.0 mi South 4.6 mph - N/A   Overcast
12:36 PM 66.2 °F 60.8 °F 83% 30.07 in 10.0 mi South 4.6 mph - N/A   Overcast
12:59 PM 66.2 °F 60.8 °F 83% 30.07 in 10.0 mi South 5.8 mph - N/A   Overcast
1:17 PM 66.2 °F 60.8 °F 83% 30.06 in 10.0 mi South 4.6 mph - N/A   Overcast
1:35 PM 68.0 °F 60.8 °F 78% 30.06 in 10.0 mi SSW 3.5 mph - N/A   Overcast
1:36 PM 68.0 °F 60.8 °F 78% 30.05 in 10.0 mi South 4.6 mph - N/A   Overcast
1:55 PM 68.0 °F 60.8 °F 78% 30.05 in 10.0 mi South 5.8 mph - N/A   Overcast
1:56 PM 68.0 °F 60.8 °F 78% 30.05 in 10.0 mi South 6.9 mph - N/A   Overcast
2:15 PM 66.2 °F 60.8 °F 83% 30.06 in 10.0 mi SSW 5.8 mph - N/A   Overcast
2:20 PM 66.2 °F 60.8 °F 83% 30.05 in 10.0 mi South 5.8 mph - N/A   Overcast
2:38 PM 66.2 °F 60.8 °F 83% - 10.0 mi SW 5.8 mph - N/A   Overcast
2:56 PM 66.2 °F 60.8 °F 83% 30.05 in 10.0 mi SSW 4.6 mph - N/A   Overcast
3:15 PM 68.0 °F 60.8 °F 78% 30.05 in 10.0 mi SW 3.5 mph - N/A   Overcast
3:16 PM 68.0 °F 60.8 °F 78% 30.05 in 10.0 mi SW 3.5 mph - N/A   Overcast
3:35 PM 68.0 °F 60.8 °F 78% 30.05 in 10.0 mi SSW 4.6 mph - N/A   Overcast
3:59 PM 68.0 °F 60.8 °F 78% 30.05 in 10.0 mi Calm Calm - N/A   Overcast
4:17 PM 68.0 °F 62.6 °F 83% 30.05 in 10.0 mi WSW 4.6 mph - N/A   Overcast
4:35 PM 68.0 °F 62.6 °F 83% 30.05 in 10.0 mi Calm Calm - N/A   Overcast
4:36 PM 69.8 °F 62.6 °F 78% 30.05 in 10.0 mi Calm Calm - N/A   Overcast
4:55 PM 69.8 °F 62.6 °F 78% 30.04 in 10.0 mi SSW 3.5 mph - N/A   Overcast
4:56 PM 69.8 °F 62.6 °F 78% 30.04 in 10.0 mi SSW 3.5 mph - N/A   Overcast
5:15 PM 69.8 °F 62.6 °F 78% 30.04 in 10.0 mi Calm Calm - N/A   Overcast
5:20 PM 69.8 °F 62.6 °F 78% 30.04 in 10.0 mi Calm Calm - N/A   Overcast
5:37 PM 69.8 °F 62.6 °F 78% 30.04 in 10.0 mi Calm Calm - N/A   Overcast
5:56 PM 69.8 °F 62.6 °F 78% 30.05 in 10.0 mi Calm Calm - N/A   Overcast
6:15 PM 69.8 °F 62.6 °F 78% 30.05 in 10.0 mi Calm Calm - N/A   Overcast
6:16 PM 69.8 °F 62.6 °F 78% 30.05 in 10.0 mi Calm Calm - N/A   Overcast
6:35 PM 68.0 °F 62.6 °F 83% 30.04 in 10.0 mi Calm Calm - N/A   Overcast
6:36 PM 68.0 °F 62.6 °F 83% 30.04 in 10.0 mi Calm Calm - N/A   Overcast
6:59 PM 68.0 °F 62.6 °F 83% 30.04 in 10.0 mi Calm Calm - N/A   Overcast
7:17 PM 68.0 °F 62.6 °F 83% 30.04 in 10.0 mi Calm Calm - N/A   Overcast
7:35 PM 68.0 °F 62.6 °F 83% 30.04 in 10.0 mi Calm Calm - N/A   Overcast
7:55 PM 68.0 °F 62.6 °F 83% 30.04 in 10.0 mi Calm Calm - N/A   Overcast
8:15 PM 66.2 °F 62.6 °F 88% 30.04 in 10.0 mi Calm Calm - N/A   Overcast
8:19 PM 66.2 °F 62.6 °F 88% 30.05 in 10.0 mi Calm Calm - N/A   Overcast
8:38 PM 66.2 °F 62.6 °F 88% 30.05 in 10.0 mi Calm Calm - N/A   Overcast
8:56 PM 66.2 °F 62.6 °F 88% 30.06 in 10.0 mi Calm Calm - N/A   Overcast
9:15 PM 66.2 °F 62.6 °F 88% 30.06 in 10.0 mi Calm Calm - N/A   Overcast
9:35 PM 66.2 °F 62.6 °F 88% 30.06 in 10.0 mi Calm Calm - N/A   Overcast
9:36 PM 66.2 °F 62.6 °F 88% 30.06 in 10.0 mi Calm Calm - N/A   Overcast
9:59 PM 66.2 °F 62.6 °F 88% 30.06 in 10.0 mi Calm Calm - N/A   Overcast
10:17 PM 66.2 °F 62.6 °F 88% 30.07 in 10.0 mi Calm Calm - N/A   Overcast
10:35 PM 64.4 °F 62.6 °F 94% 30.07 in 10.0 mi Calm Calm - N/A   Overcast
10:36 PM 64.4 °F 62.6 °F 94% 30.07 in 10.0 mi Calm Calm - N/A   Overcast
10:55 PM 64.4 °F 62.6 °F 94% 30.07 in 10.0 mi Calm Calm - N/A   Scattered Clouds
10:56 PM 64.4 °F 62.6 °F 94% 30.07 in 10.0 mi Calm Calm - N/A   Scattered Clouds
11:15 PM 62.6 °F 60.8 °F 94% 30.08 in 7.0 mi Calm Calm - N/A   Clear
11:38 PM 62.6 °F 60.8 °F 94% 30.08 in 1.2 mi Calm Calm - N/A   Overcast
11:56 PM 62.6 °F 60.8 °F 94% 30.08 in 10.0 mi Calm Calm - N/A   Overcast